Year,Month,Day,Hour,Minute,Value (Times are PST for temperature in C)
2017,03,27,00,00,7.30
2017,03,27,00,01,7.30
2017,03,27,00,02,7.30
2017,03,27,00,03,7.30
2017,03,27,00,04,7.30
2017,03,27,00,05,7.30
2017,03,27,00,06,7.30
2017,03,27,00,07,7.30
2017,03,27,00,08,7.30
2017,03,27,00,09,7.40
2017,03,27,00,10,7.40
2017,03,27,00,11,7.40
2017,03,27,00,12,7.40
2017,03,27,00,13,7.40
2017,03,27,00,14,7.40
2017,03,27,00,15,7.40
2017,03,27,00,16,7.40
2017,03,27,00,17,7.40
2017,03,27,00,18,7.40
2017,03,27,00,19,7.40
2017,03,27,00,20,7.40
2017,03,27,00,21,7.40
2017,03,27,00,22,7.40
2017,03,27,00,23,7.40
2017,03,27,00,24,7.40
2017,03,27,00,25,7.40
2017,03,27,00,26,7.40
2017,03,27,00,27,7.40
2017,03,27,00,28,7.40
2017,03,27,00,29,7.40
2017,03,27,00,30,7.40
2017,03,27,00,31,7.40
2017,03,27,00,32,7.40
2017,03,27,00,33,7.30
2017,03,27,00,34,7.40
2017,03,27,00,35,7.40
2017,03,27,00,36,7.40
2017,03,27,00,37,7.40
2017,03,27,00,38,7.40
2017,03,27,00,39,7.40
2017,03,27,00,40,7.40
2017,03,27,00,41,7.40
2017,03,27,00,42,7.40
2017,03,27,00,43,7.40
2017,03,27,00,44,7.40
2017,03,27,00,45,7.40
2017,03,27,00,46,7.50
2017,03,27,00,47,7.50
2017,03,27,00,48,7.50
2017,03,27,00,49,7.50
2017,03,27,00,50,7.50
2017,03,27,00,51,7.50
2017,03,27,00,52,7.50
2017,03,27,00,53,7.50
2017,03,27,00,54,7.50
2017,03,27,00,55,7.50
2017,03,27,00,56,7.60
2017,03,27,00,57,7.60
2017,03,27,00,58,7.60
2017,03,27,00,59,7.60
2017,03,27,01,00,7.60
2017,03,27,01,01,7.60
2017,03,27,01,02,7.60
2017,03,27,01,03,7.60
2017,03,27,01,04,7.60
2017,03,27,01,05,7.60
2017,03,27,01,06,7.60
2017,03,27,01,07,7.60
2017,03,27,01,08,7.60
2017,03,27,01,09,7.60
2017,03,27,01,10,7.60
2017,03,27,01,11,7.60
2017,03,27,01,12,7.60
2017,03,27,01,13,7.60
2017,03,27,01,14,7.50
2017,03,27,01,15,7.50
2017,03,27,01,16,7.50
2017,03,27,01,17,7.50
2017,03,27,01,18,7.50
2017,03,27,01,19,7.50
2017,03,27,01,20,7.50
2017,03,27,01,21,7.40
2017,03,27,01,22,7.40
2017,03,27,01,23,7.40
2017,03,27,01,24,7.40
2017,03,27,01,25,7.40
2017,03,27,01,26,7.40
2017,03,27,01,27,7.40
2017,03,27,01,28,7.40
2017,03,27,01,29,7.40
2017,03,27,01,30,7.40
2017,03,27,01,31,7.40
2017,03,27,01,32,7.30
2017,03,27,01,33,7.40
2017,03,27,01,34,7.40
2017,03,27,01,35,7.40
2017,03,27,01,36,7.40
2017,03,27,01,37,7.30
2017,03,27,01,38,7.40
2017,03,27,01,39,7.40
2017,03,27,01,40,7.40
2017,03,27,01,41,7.40
2017,03,27,01,42,7.40
2017,03,27,01,43,7.40
2017,03,27,01,44,7.40
2017,03,27,01,45,7.40
2017,03,27,01,46,7.40
2017,03,27,01,47,7.40
2017,03,27,01,48,7.40
2017,03,27,01,49,7.30
2017,03,27,01,50,7.30
2017,03,27,01,51,7.30
2017,03,27,01,52,7.30
2017,03,27,01,53,7.30
2017,03,27,01,54,7.30
2017,03,27,01,55,7.30
2017,03,27,01,56,7.30
2017,03,27,01,57,7.30
2017,03,27,01,58,7.30
2017,03,27,01,59,7.30
2017,03,27,02,00,7.40
2017,03,27,02,01,7.40
2017,03,27,02,02,7.40
2017,03,27,02,03,7.40
2017,03,27,02,04,7.40
2017,03,27,02,05,7.40
2017,03,27,02,06,7.40
2017,03,27,02,07,7.40
2017,03,27,02,08,7.40
2017,03,27,02,09,7.40
2017,03,27,02,10,7.40
2017,03,27,02,11,7.40
2017,03,27,02,12,7.40
2017,03,27,02,13,7.40
2017,03,27,02,14,7.40
2017,03,27,02,15,7.40
2017,03,27,02,16,7.40
2017,03,27,02,17,7.40
2017,03,27,02,18,7.40
2017,03,27,02,19,7.40
2017,03,27,02,20,7.40
2017,03,27,02,21,7.40
2017,03,27,02,22,7.40
2017,03,27,02,23,7.40
2017,03,27,02,24,7.40
2017,03,27,02,25,7.40
2017,03,27,02,26,7.40
2017,03,27,02,27,7.40
2017,03,27,02,28,7.40
2017,03,27,02,29,7.40
2017,03,27,02,30,7.40
2017,03,27,02,31,7.40
2017,03,27,02,32,7.40
2017,03,27,02,33,7.40
2017,03,27,02,34,7.40
2017,03,27,02,35,7.30
2017,03,27,02,36,7.40
2017,03,27,02,37,7.40
2017,03,27,02,38,7.40
2017,03,27,02,39,7.30
2017,03,27,02,40,7.40
2017,03,27,02,41,7.40
2017,03,27,02,42,7.30
2017,03,27,02,43,7.40
2017,03,27,02,44,7.40
2017,03,27,02,45,7.40
2017,03,27,02,46,7.40
2017,03,27,02,47,7.40
2017,03,27,02,48,7.40
2017,03,27,02,49,7.40
2017,03,27,02,50,7.40
2017,03,27,02,51,7.40
2017,03,27,02,52,7.40
2017,03,27,02,53,7.40
2017,03,27,02,54,7.40
2017,03,27,02,55,7.50
2017,03,27,02,56,7.50
2017,03,27,02,57,7.50
2017,03,27,02,58,7.50
2017,03,27,02,59,7.50
2017,03,27,03,00,7.50
2017,03,27,03,01,7.50
2017,03,27,03,02,7.60
2017,03,27,03,03,7.60
2017,03,27,03,04,7.60
2017,03,27,03,05,7.60
2017,03,27,03,06,7.60
2017,03,27,03,07,7.60
2017,03,27,03,08,7.60
2017,03,27,03,09,7.60
2017,03,27,03,10,7.60
2017,03,27,03,11,7.60
2017,03,27,03,12,7.60
2017,03,27,03,13,7.60
2017,03,27,03,14,7.60
2017,03,27,03,15,7.60
2017,03,27,03,16,7.60
2017,03,27,03,17,7.60
2017,03,27,03,18,7.60
2017,03,27,03,19,7.60
2017,03,27,03,20,7.60
2017,03,27,03,21,7.60
2017,03,27,03,22,7.60
2017,03,27,03,23,7.60
2017,03,27,03,24,7.60
2017,03,27,03,25,7.60
2017,03,27,03,26,7.60
2017,03,27,03,27,7.60
2017,03,27,03,28,7.60
2017,03,27,03,29,7.60
2017,03,27,03,30,7.60
2017,03,27,03,31,7.60
2017,03,27,03,32,7.60
2017,03,27,03,33,7.60
2017,03,27,03,34,7.60
2017,03,27,03,35,7.60
2017,03,27,03,36,7.60
2017,03,27,03,37,7.60
2017,03,27,03,38,7.60
2017,03,27,03,39,7.60
2017,03,27,03,40,7.60
2017,03,27,03,41,7.60
2017,03,27,03,42,7.60
2017,03,27,03,43,7.60
2017,03,27,03,44,7.60
2017,03,27,03,45,7.60
2017,03,27,03,46,7.60
2017,03,27,03,47,7.60
2017,03,27,03,48,7.60
2017,03,27,03,49,7.60
2017,03,27,03,50,7.50
2017,03,27,03,51,7.50
2017,03,27,03,52,7.50
2017,03,27,03,53,7.50
2017,03,27,03,54,7.50
2017,03,27,03,55,7.50
2017,03,27,03,56,7.50
2017,03,27,03,57,7.50
2017,03,27,03,58,7.40
2017,03,27,03,59,7.40
2017,03,27,04,00,7.40
2017,03,27,04,01,7.40
2017,03,27,04,02,7.40
2017,03,27,04,03,7.40
2017,03,27,04,04,7.40
2017,03,27,04,05,7.40
2017,03,27,04,06,7.40
2017,03,27,04,07,7.40
2017,03,27,04,08,7.40
2017,03,27,04,09,7.40
2017,03,27,04,10,7.40
2017,03,27,04,11,7.40
2017,03,27,04,12,7.40
2017,03,27,04,13,7.40
2017,03,27,04,14,7.40
2017,03,27,04,15,7.40
2017,03,27,04,16,7.40
2017,03,27,04,17,7.40
2017,03,27,04,18,7.30
2017,03,27,04,19,7.30
2017,03,27,04,20,7.30
2017,03,27,04,21,7.30
2017,03,27,04,22,7.30
2017,03,27,04,23,7.30
2017,03,27,04,24,7.30
2017,03,27,04,25,7.30
2017,03,27,04,26,7.30
2017,03,27,04,27,7.30
2017,03,27,04,28,7.30
2017,03,27,04,29,7.30
2017,03,27,04,30,7.30
2017,03,27,04,31,7.30
2017,03,27,04,32,7.30
2017,03,27,04,33,7.30
2017,03,27,04,34,7.30
2017,03,27,04,35,7.30
2017,03,27,04,36,7.30
2017,03,27,04,37,7.30
2017,03,27,04,38,7.30
2017,03,27,04,39,7.30
2017,03,27,04,40,7.30
2017,03,27,04,41,7.30
2017,03,27,04,42,7.30
2017,03,27,04,43,7.30
2017,03,27,04,44,7.30
2017,03,27,04,45,7.30
2017,03,27,04,46,7.30
2017,03,27,04,47,7.30
2017,03,27,04,48,7.30
2017,03,27,04,49,7.30
2017,03,27,04,50,7.30
2017,03,27,04,51,7.30
2017,03,27,04,52,7.30
2017,03,27,04,53,7.30
2017,03,27,04,54,7.30
2017,03,27,04,55,7.30
2017,03,27,04,56,7.30
2017,03,27,04,57,7.30
2017,03,27,04,58,7.30
2017,03,27,04,59,7.30
2017,03,27,05,00,7.30
2017,03,27,05,01,7.30
2017,03,27,05,02,7.30
2017,03,27,05,03,7.30
2017,03,27,05,04,7.30
2017,03,27,05,05,7.30
2017,03,27,05,06,7.30
2017,03,27,05,07,7.30
2017,03,27,05,08,7.30
2017,03,27,05,09,7.30
2017,03,27,05,10,7.30
2017,03,27,05,11,7.30
2017,03,27,05,12,7.30
2017,03,27,05,13,7.30
2017,03,27,05,14,7.30
2017,03,27,05,15,7.30
2017,03,27,05,16,7.30
2017,03,27,05,17,7.30
2017,03,27,05,18,7.30
2017,03,27,05,19,7.30
2017,03,27,05,20,7.30
2017,03,27,05,21,7.30
2017,03,27,05,22,7.30
2017,03,27,05,23,7.30
2017,03,27,05,24,7.30
2017,03,27,05,25,7.30
2017,03,27,05,26,7.30
2017,03,27,05,27,7.30
2017,03,27,05,28,7.40
2017,03,27,05,29,7.40
2017,03,27,05,30,7.40
2017,03,27,05,31,7.40
2017,03,27,05,32,7.40
2017,03,27,05,33,7.40
2017,03,27,05,34,7.50
2017,03,27,05,35,7.50
2017,03,27,05,36,7.50
2017,03,27,05,37,7.50
2017,03,27,05,38,7.50
2017,03,27,05,39,7.50
2017,03,27,05,40,7.50
2017,03,27,05,41,7.60
2017,03,27,05,42,7.60
2017,03,27,05,43,7.60
2017,03,27,05,44,7.60
2017,03,27,05,45,7.60
2017,03,27,05,46,7.60
2017,03,27,05,47,7.60
2017,03,27,05,48,7.60
2017,03,27,05,49,7.60
2017,03,27,05,50,7.60
2017,03,27,05,51,7.60
2017,03,27,05,52,7.60
2017,03,27,05,53,7.60
2017,03,27,05,54,7.60
2017,03,27,05,55,7.60
2017,03,27,05,56,7.60
2017,03,27,05,57,7.60
2017,03,27,05,58,7.60
2017,03,27,05,59,7.60
2017,03,27,06,00,7.60
2017,03,27,06,01,7.60
2017,03,27,06,02,7.60
2017,03,27,06,03,7.60
2017,03,27,06,04,7.60
2017,03,27,06,05,7.60
2017,03,27,06,06,7.60
2017,03,27,06,07,7.70
2017,03,27,06,08,7.70
2017,03,27,06,09,7.70
2017,03,27,06,10,7.70
2017,03,27,06,11,7.70
2017,03,27,06,12,7.70
2017,03,27,06,13,7.70
2017,03,27,06,14,7.70
2017,03,27,06,15,7.70
2017,03,27,06,16,7.70
2017,03,27,06,17,7.70
2017,03,27,06,18,7.60
2017,03,27,06,19,7.60
2017,03,27,06,20,7.60
2017,03,27,06,21,7.60
2017,03,27,06,22,7.60
2017,03,27,06,23,7.50
2017,03,27,06,24,7.50
2017,03,27,06,25,7.50
2017,03,27,06,26,7.50
2017,03,27,06,27,7.40
2017,03,27,06,28,7.40
2017,03,27,06,29,7.40
2017,03,27,06,30,7.40
2017,03,27,06,31,7.40
2017,03,27,06,32,7.40
2017,03,27,06,33,7.40
2017,03,27,06,34,7.40
2017,03,27,06,35,7.40
2017,03,27,06,36,7.40
2017,03,27,06,37,7.40
2017,03,27,06,38,7.30
2017,03,27,06,39,7.30
2017,03,27,06,40,7.30
2017,03,27,06,41,7.30
2017,03,27,06,42,7.30
2017,03,27,06,43,7.30
2017,03,27,06,44,7.30
2017,03,27,06,45,7.30
2017,03,27,06,46,7.30
2017,03,27,06,47,7.30
2017,03,27,06,48,7.30
2017,03,27,06,49,7.30
2017,03,27,06,50,7.30
2017,03,27,06,51,7.20
2017,03,27,06,52,7.20
2017,03,27,06,53,7.20
2017,03,27,06,54,7.20
2017,03,27,06,55,7.20
2017,03,27,06,56,7.20
2017,03,27,06,57,7.20
2017,03,27,06,58,7.20
2017,03,27,06,59,7.20
2017,03,27,07,00,7.20
2017,03,27,07,01,7.20
2017,03,27,07,02,7.20
2017,03,27,07,03,7.20
2017,03,27,07,04,7.10
2017,03,27,07,05,7.10
2017,03,27,07,06,7.10
2017,03,27,07,07,7.10
2017,03,27,07,08,7.10
2017,03,27,07,09,7.10
2017,03,27,07,10,7.10
2017,03,27,07,11,7.10
2017,03,27,07,12,7.10
2017,03,27,07,13,7.10
2017,03,27,07,14,7.10
2017,03,27,07,15,7.00
2017,03,27,07,16,7.00
2017,03,27,07,17,7.00
2017,03,27,07,18,7.00
2017,03,27,07,19,7.00
2017,03,27,07,20,7.00
2017,03,27,07,21,6.90
2017,03,27,07,22,6.90
2017,03,27,07,23,6.90
2017,03,27,07,24,6.90
2017,03,27,07,25,6.90
2017,03,27,07,26,6.90
2017,03,27,07,27,6.90
2017,03,27,07,28,6.90
2017,03,27,07,29,6.90
2017,03,27,07,30,6.90
2017,03,27,07,31,6.90
2017,03,27,07,32,6.90
2017,03,27,07,33,6.90
2017,03,27,07,34,6.90
2017,03,27,07,35,6.90
2017,03,27,07,36,6.90
2017,03,27,07,37,6.90
2017,03,27,07,38,6.90
2017,03,27,07,39,6.90
2017,03,27,07,40,6.90
